BEL7YC LIRQ-EBBR

Flight info

Callsign BEL7YC
Flight time N/A
Altitude 38000
Route BIBNO DCT BEROK DCT GOLAS DCT TONDA DCT PIMOT DCT AOSTA DCT ORSUD DCT MOLUS DCT GILIR DCT PENDU DCT IXILU DCT GIVOR DCT SORAL DCT IBERA DCT DIK/N0443F320 Y37 BATTY
Aircraft A319/M-SDE3FGHIRWY/LB1

Departure

Time 2026-05-08 15:44
Airport Florence Airport, Peretola (LIRQ)

Arrival

Time N/A
Airport Brussels Airport (EBBR)
Time Latitude Longitude Altitude Speed Heading
2026-05-08 15:11 43.80295 11.20032 126 ft 0 kts 158°
2026-05-08 15:38 43.80299 11.20030 123 ft 3 kts 158°
2026-05-08 15:38 43.80324 11.20017 127 ft 4 kts 164°
2026-05-08 15:38 43.80348 11.20014 128 ft 4 kts 205°
2026-05-08 15:39 43.80362 11.20033 128 ft 1 kts 254°
2026-05-08 15:41 43.80362 11.20032 129 ft 1 kts 254°
2026-05-08 15:42 43.80356 11.20007 134 ft 5 kts 254°
2026-05-08 15:42 43.80358 11.19970 130 ft 2 kts 289°
2026-05-08 15:42 43.80366 11.19954 131 ft 3 kts 311°
2026-05-08 15:42 43.80383 11.19932 132 ft 4 kts 316°
2026-05-08 15:43 43.80415 11.19891 132 ft 12 kts 317°
2026-05-08 15:43 43.80480 11.19776 130 ft 8 kts 276°
2026-05-08 15:43 43.80503 11.19737 129 ft 5 kts 42°
2026-05-08 15:43 43.80508 11.19746 129 ft 0 kts 49°
2026-05-08 15:44 43.80609 11.19903 132 ft 63 kts 47°
2026-05-08 15:44 43.81104 11.20661 135 ft 145 kts 48°
2026-05-08 15:44 43.81794 11.21711 807 ft 146 kts 44°
2026-05-08 15:44 43.82751 11.22277 1478 ft 160 kts
2026-05-08 15:45 43.83836 11.21869 2200 ft 169 kts 329°
2026-05-08 15:45 43.84535 11.20542 2738 ft 179 kts 284°
2026-05-08 15:45 43.84422 11.18828 3314 ft 183 kts 242°
2026-05-08 15:45 43.83855 11.17413 4172 ft 161 kts 239°
2026-05-08 15:46 43.83299 11.16096 4745 ft 156 kts 238°
2026-05-08 15:46 43.82714 11.14764 5025 ft 170 kts 238°
2026-05-08 15:46 43.82040 11.13287 5242 ft 192 kts 237°
2026-05-08 15:46 43.81318 11.11644 5607 ft 209 kts 241°
2026-05-08 15:47 43.80746 11.09713 5895 ft 229 kts 261°
2026-05-08 15:47 43.80668 11.07482 6570 ft 232 kts 274°
2026-05-08 15:47 43.80784 11.05251 7370 ft 233 kts 276°
2026-05-08 15:47 43.80979 11.03013 8167 ft 235 kts 285°
2026-05-08 15:48 43.82805 10.98829 9033 ft 279 kts 306°
2026-05-08 15:48 43.84001 10.96610 9379 ft 303 kts 306°
2026-05-08 15:48 43.85312 10.94179 9730 ft 326 kts 306°
2026-05-08 15:49 43.86687 10.91621 10364 ft 335 kts 306°
2026-05-08 15:49 43.88086 10.89015 11142 ft 339 kts 306°
2026-05-08 15:49 43.89496 10.86378 11896 ft 343 kts 306°
2026-05-08 15:49 43.90920 10.83705 12700 ft 346 kts 306°
2026-05-08 15:50 43.92355 10.81003 13457 ft 350 kts 306°
2026-05-08 15:50 43.93809 10.78266 14164 ft 354 kts 306°
2026-05-08 15:50 43.95277 10.75508 14864 ft 357 kts 306°
2026-05-08 15:50 43.96754 10.72732 15613 ft 359 kts 305°
2026-05-08 15:51 43.98241 10.69933 16304 ft 362 kts 305°
2026-05-08 15:51 43.99741 10.67107 16971 ft 365 kts 304°
2026-05-08 15:51 44.00742 10.65219 17417 ft 367 kts 304°
2026-05-08 15:51 44.02775 10.61375 18315 ft 371 kts 303°
2026-05-08 15:52 44.03789 10.59452 18704 ft 373 kts 303°
2026-05-08 15:52 44.05328 10.56532 19330 ft 376 kts 303°
2026-05-08 15:52 44.06875 10.53595 19946 ft 378 kts 303°
2026-05-08 15:52 44.08431 10.50639 20538 ft 380 kts 303°
2026-05-08 15:53 44.09999 10.47658 21114 ft 383 kts 303°
2026-05-08 15:53 44.11580 10.44651 21693 ft 387 kts 303°
2026-05-08 15:53 44.13177 10.41617 22237 ft 390 kts 303°
2026-05-08 15:53 44.14781 10.38565 22792 ft 393 kts 303°
2026-05-08 15:54 44.16387 10.35471 23319 ft 395 kts 301°
2026-05-08 15:54 44.17773 10.32164 23813 ft 397 kts 296°
2026-05-08 15:54 44.19113 10.28791 24216 ft 399 kts 296°
2026-05-08 15:54 44.20458 10.25401 24653 ft 400 kts 296°
2026-05-08 15:55 44.21807 10.22001 25100 ft 402 kts 296°
2026-05-08 15:55 44.24519 10.15155 26033 ft 404 kts 296°
2026-05-08 15:55 44.25880 10.11729 26490 ft 404 kts 296°
2026-05-08 15:56 44.27222 10.08339 26941 ft 405 kts 296°
2026-05-08 15:56 44.28584 10.04893 27400 ft 406 kts 296°
2026-05-08 15:56 44.29945 10.01438 27885 ft 407 kts 296°
2026-05-08 15:56 44.31309 9.97974 28293 ft 408 kts 296°
2026-05-08 15:57 44.32679 9.94494 28718 ft 409 kts 296°
2026-05-08 15:57 44.34050 9.91009 29149 ft 410 kts 296°
2026-05-08 15:57 44.35425 9.87512 29539 ft 411 kts 296°
2026-05-08 15:57 44.36805 9.84007 29912 ft 412 kts 296°
2026-05-08 15:58 44.38188 9.80489 30288 ft 412 kts 296°
2026-05-08 15:58 44.39563 9.76988 30687 ft 410 kts 296°
2026-05-08 15:58 44.40932 9.73491 31038 ft 410 kts 296°
2026-05-08 15:58 44.42295 9.69995 31452 ft 408 kts 296°
2026-05-08 15:59 44.43648 9.66519 31947 ft 404 kts 296°
2026-05-08 15:59 44.44988 9.63077 32431 ft 401 kts 296°
2026-05-08 15:59 44.46457 9.59764 32856 ft 401 kts 301°
2026-05-08 15:59 44.48012 9.56546 33347 ft 398 kts 300°
2026-05-08 16:00 44.49554 9.53349 33878 ft 394 kts 300°
2026-05-08 16:00 44.51078 9.50184 34317 ft 391 kts 300°
2026-05-08 16:00 44.52597 9.47032 34637 ft 391 kts 300°
2026-05-08 16:00 44.54117 9.43868 34895 ft 392 kts 300°
2026-05-08 16:01 44.55644 9.40685 35140 ft 394 kts 300°
2026-05-08 16:01 44.57172 9.37491 35360 ft 395 kts 301°
2026-05-08 16:01 44.58706 9.34281 35561 ft 397 kts 300°
2026-05-08 16:01 44.60245 9.31057 35802 ft 398 kts 300°
2026-05-08 16:02 44.61789 9.27820 35992 ft 400 kts 300°
2026-05-08 16:02 44.63342 9.24568 36037 ft 402 kts 301°
2026-05-08 16:02 44.66461 9.18019 36038 ft 404 kts 300°
2026-05-08 16:03 44.69577 9.11453 36036 ft 404 kts 300°
2026-05-08 16:03 44.72689 9.04885 36044 ft 403 kts 301°
2026-05-08 16:04 44.75800 8.98323 36046 ft 403 kts 301°
2026-05-08 16:04 44.78901 8.91754 36049 ft 403 kts 301°
2026-05-08 16:05 44.81995 8.85174 36051 ft 403 kts 300°
2026-05-08 16:05 44.85082 8.78583 36057 ft 403 kts 300°
2026-05-08 16:06 44.88175 8.71984 36054 ft 404 kts 301°
2026-05-08 16:06 44.91276 8.65363 36062 ft 405 kts 300°
2026-05-08 16:07 44.94372 8.58731 36063 ft 405 kts 300°
2026-05-08 16:07 44.97438 8.52130 36068 ft 405 kts 300°
2026-05-08 16:08 45.00525 8.45477 36073 ft 405 kts 300°
2026-05-08 16:08 45.03610 8.38828 36070 ft 405 kts 300°
2026-05-08 16:09 45.06688 8.32167 36074 ft 404 kts 300°
2026-05-08 16:09 45.09759 8.25489 36271 ft 406 kts 301°
2026-05-08 16:10 45.11501 8.22322 36506 ft 410 kts 310°
2026-05-08 16:10 45.13581 8.19531 36723 ft 413 kts 314°
2026-05-08 16:10 45.15719 8.16802 36938 ft 414 kts 314°
2026-05-08 16:10 45.17862 8.14069 37156 ft 415 kts 314°
2026-05-08 16:11 45.20009 8.11328 37354 ft 416 kts 314°
2026-05-08 16:11 45.22160 8.08578 37553 ft 417 kts 314°
2026-05-08 16:11 45.24317 8.05814 37731 ft 418 kts 314°
2026-05-08 16:11 45.26471 8.03038 37918 ft 419 kts 314°
2026-05-08 16:12 45.28632 8.00251 38051 ft 420 kts 314°
2026-05-08 16:12 45.30768 7.97494 38086 ft 421 kts 314°
2026-05-08 16:12 45.35119 7.91864 38069 ft 424 kts 314°
2026-05-08 16:13 45.39477 7.86214 38071 ft 424 kts 314°
2026-05-08 16:13 45.43837 7.80554 38071 ft 424 kts 314°
2026-05-08 16:14 45.48198 7.74889 38079 ft 424 kts 314°
2026-05-08 16:14 45.52559 7.69232 38109 ft 424 kts 315°
2026-05-08 16:15 45.56955 7.63641 38104 ft 423 kts 315°
2026-05-08 16:15 45.61355 7.58058 38096 ft 423 kts 315°
2026-05-08 16:16 45.65736 7.52466 38097 ft 422 kts 315°
2026-05-08 16:16 45.70115 7.46850 38093 ft 423 kts 315°
2026-05-08 16:17 45.73750 7.42182 38061 ft 422 kts 315°
2026-05-08 16:17 45.78852 7.35613 38053 ft 422 kts 315°
2026-05-08 16:18 45.83589 7.30578 38051 ft 424 kts 321°
2026-05-08 16:18 45.88416 7.25696 38053 ft 425 kts 322°
2026-05-08 16:19 45.93229 7.20785 38056 ft 424 kts 321°
2026-05-08 16:19 45.98030 7.15872 38034 ft 424 kts 321°
2026-05-08 16:20 46.02802 7.10995 38002 ft 422 kts 321°
2026-05-08 16:20 46.07565 7.06114 38001 ft 419 kts 321°
2026-05-08 16:21 46.12362 7.01167 38007 ft 428 kts 321°
2026-05-08 16:21 46.17221 6.96150 38010 ft 430 kts 321°
2026-05-08 16:22 46.22086 6.91124 38008 ft 430 kts 321°
2026-05-08 16:22 46.26956 6.86076 38014 ft 431 kts 321°
2026-05-08 16:23 46.31830 6.81030 38015 ft 431 kts 321°
2026-05-08 16:23 46.36707 6.75966 38008 ft 432 kts 321°
2026-05-08 16:24 46.41592 6.70870 38009 ft 433 kts 321°
2026-05-08 16:24 46.46740 6.66279 38009 ft 438 kts 330°
2026-05-08 16:25 46.52235 6.62427 38009 ft 439 kts 330°
2026-05-08 16:25 46.57733 6.58553 38012 ft 439 kts 330°
2026-05-08 16:26 46.63234 6.54671 38018 ft 439 kts 330°
2026-05-08 16:26 46.68699 6.50809 38015 ft 439 kts 330°
2026-05-08 16:27 46.74187 6.46901 38026 ft 439 kts 330°
2026-05-08 16:27 46.79681 6.43002 38073 ft 439 kts 330°
2026-05-08 16:28 46.85170 6.39098 38019 ft 438 kts 330°
2026-05-08 16:28 46.90652 6.35178 38024 ft 439 kts 330°
2026-05-08 16:29 46.96383 6.32069 38014 ft 448 kts 346°
2026-05-08 16:29 47.02543 6.30651 38029 ft 449 kts 347°
2026-05-08 16:30 47.08717 6.29249 38020 ft 449 kts 346°
2026-05-08 16:30 47.14859 6.27594 38024 ft 448 kts 345°
2026-05-08 16:31 47.20977 6.25788 38015 ft 449 kts 344°
2026-05-08 16:31 47.27109 6.24010 38021 ft 450 kts 345°
2026-05-08 16:32 47.33263 6.22274 38015 ft 451 kts 345°
2026-05-08 16:32 47.39427 6.20549 38022 ft 451 kts 345°
2026-05-08 16:33 47.45586 6.18814 38037 ft 451 kts 345°
2026-05-08 16:33 47.51751 6.17063 38021 ft 451 kts 345°
2026-05-08 16:34 47.57917 6.15309 38029 ft 451 kts 345°
2026-05-08 16:34 47.64084 6.13548 38034 ft 452 kts 345°
2026-05-08 16:35 47.70260 6.11773 38013 ft 452 kts 345°
2026-05-08 16:35 47.76445 6.09990 38008 ft 453 kts 345°
2026-05-08 16:36 47.82646 6.08218 38016 ft 454 kts 345°
2026-05-08 16:36 47.88852 6.06442 38024 ft 454 kts 345°
2026-05-08 16:37 47.95063 6.04646 38027 ft 455 kts 345°
2026-05-08 16:37 48.01285 6.02843 38030 ft 455 kts 345°
2026-05-08 16:38 48.07507 6.01033 38054 ft 456 kts 345°
2026-05-08 16:38 48.13745 5.99221 38044 ft 457 kts 345°
2026-05-08 16:39 48.19992 5.97399 38045 ft 458 kts 345°
2026-05-08 16:39 48.26202 5.95585 38049 ft 457 kts 345°
2026-05-08 16:40 48.32445 5.93757 38056 ft 457 kts 346°
2026-05-08 16:40 48.38693 5.91918 38049 ft 458 kts 346°
2026-05-08 16:41 48.43929 5.90374 38046 ft 458 kts 346°
2026-05-08 16:42 48.53269 5.87632 38054 ft 458 kts 346°
2026-05-08 16:42 48.59532 5.85778 38041 ft 459 kts 346°
2026-05-08 16:43 48.65794 5.83909 38042 ft 459 kts 346°
2026-05-08 16:43 48.72063 5.82038 38045 ft 459 kts 346°
2026-05-08 16:44 48.78334 5.80166 38046 ft 459 kts 346°
2026-05-08 16:44 48.84601 5.78294 38050 ft 459 kts 346°
2026-05-08 16:45 48.90868 5.76414 38056 ft 459 kts 346°
2026-05-08 16:45 48.97134 5.74526 38067 ft 459 kts 346°
2026-05-08 16:46 49.03390 5.72635 38067 ft 458 kts 346°
2026-05-08 16:46 49.09235 5.70868 38076 ft 457 kts 346°